owner,sensor,date,latitude,longitude,vertical_datum,wind_speed,wind_to_direction,wind_speed_of_gust,qcFlag 
COMPS,ioos:station:USF.COMPS:C13:1,2019-05-10T16:35:00,26.0630,-83.0730,1.3,5.66,121.41,6.7,'11111222,11111222,11111222' 
COMPS,ioos:station:USF.COMPS:C13:1,2019-05-10T17:35:00,26.0630,-83.0730,1.3,6.05,117.12,6.99,'11111222,11111222,11111222' 
COMPS,ioos:station:USF.COMPS:C13:1,2019-05-10T18:35:00,26.0630,-83.0730,1.3,4.86,121.72,5.82,'11111222,11111222,11111222' 
COMPS,ioos:station:USF.COMPS:C13:1,2019-05-10T19:35:00,26.0630,-83.0730,1.3,4.18,125.14,5.26,'11111222,11111222,11111222' 
COMPS,ioos:station:USF.COMPS:C13:1,2019-05-10T20:35:00,26.0630,-83.0730,1.3,3.12,113.44,3.95,'11111222,11111222,11111222' 
COMPS,ioos:station:USF.COMPS:C13:1,2019-05-10T21:35:00,26.0630,-83.0730,1.3,2.82,112.97,3.5,'11111222,11111222,11111222' 
COMPS,ioos:station:USF.COMPS:C13:1,2019-05-10T22:35:00,26.0630,-83.0730,1.3,1.31,161.28,1.96,'11111222,11111222,11111222' 
COMPS,ioos:station:USF.COMPS:C13:1,2019-05-10T23:35:00,26.0630,-83.0730,1.3,2.31,99.33,3.01,'11111222,11111222,11111222' 
COMPS,ioos:station:USF.COMPS:C13:1,2019-05-11T00:35:00,26.0630,-83.0730,1.3,1.88,82.15,2.67,'11111222,11111222,11111222' 
COMPS,ioos:station:USF.COMPS:C13:1,2019-05-11T01:35:00,26.0630,-83.0730,1.3,2.36,64.29,2.93,'11111222,11111222,11111222' 
COMPS,ioos:station:USF.COMPS:C13:1,2019-05-11T02:35:00,26.0630,-83.0730,1.3,3.57,28.74,4.72,'11111222,11111222,11111222' 
COMPS,ioos:station:USF.COMPS:C13:1,2019-05-11T03:35:00,26.0630,-83.0730,1.3,4.9,34.51,5.9,'11111222,11111222,11111222' 
COMPS,ioos:station:USF.COMPS:C13:1,2019-05-11T04:35:00,26.0630,-83.0730,1.3,4.74,57.12,5.69,'11111222,11111222,11111222' 
COMPS,ioos:station:USF.COMPS:C13:1,2019-05-11T05:35:00,26.0630,-83.0730,1.3,6.39,60.35,7.64,'11111222,11111222,11111222' 
COMPS,ioos:station:USF.COMPS:C13:1,2019-05-11T06:35:00,26.0630,-83.0730,1.3,6.9,79.68,8.15,'11111222,11111222,11111222' 
COMPS,ioos:station:USF.COMPS:C13:1,2019-05-11T07:35:00,26.0630,-83.0730,1.3,7.15,100.08,8.59,'11111222,11111222,11111222' 
COMPS,ioos:station:USF.COMPS:C13:1,2019-05-11T08:35:00,26.0630,-83.0730,1.3,5.43,112.48,6.56,'11111222,11111222,11111222' 
COMPS,ioos:station:USF.COMPS:C13:1,2019-05-11T09:35:00,26.0630,-83.0730,1.3,4.44,116.98,5.44,'11111222,11111222,11111222' 
COMPS,ioos:station:USF.COMPS:C13:1,2019-05-11T10:35:00,26.0630,-83.0730,1.3,6.03,115.23,7.18,'11111222,11111222,11111222' 
COMPS,ioos:station:USF.COMPS:C13:1,2019-05-11T11:35:00,26.0630,-83.0730,1.3,5.49,138.84,6.57,'11111222,11111222,11111222' 
COMPS,ioos:station:USF.COMPS:C13:1,2019-05-11T12:35:00,26.0630,-83.0730,1.3,6.29,120.03,7.32,'11111222,11111222,11111222' 
COMPS,ioos:station:USF.COMPS:C13:1,2019-05-13T13:35:00,26.0630,-83.0730,1.3,5.02,187.6,6.25,'11111222,11111222,11111222' 
COMPS,ioos:station:USF.COMPS:C13:1,2019-05-13T14:35:00,26.0630,-83.0730,1.3,5.24,194.13,6.41,'11111222,11111222,11111222' 
COMPS,ioos:station:USF.COMPS:C13:1,2019-05-13T15:35:00,26.0630,-83.0730,1.3,5.4,205.58,6.58,'11111222,11111222,11111222' 
COMPS,ioos:station:USF.COMPS:C13:1,2019-05-13T16:35:00,26.0630,-83.0730,1.3,5.99,210.11,7.34,'11111222,11111222,11111222' 
COMPS,ioos:station:USF.COMPS:C13:1,2019-05-13T17:35:00,26.0630,-83.0730,1.3,5.73,234.8,6.92,'11111222,11111222,11111222' 
COMPS,ioos:station:USF.COMPS:C13:1,2019-05-13T18:35:00,26.0630,-83.0730,1.3,6.49,241.37,7.95,'11111222,11111222,11111222' 
COMPS,ioos:station:USF.COMPS:C13:1,2019-05-13T19:35:00,26.0630,-83.0730,1.3,5.91,260.02,7.49,'11111222,11111222,11111222' 
COMPS,ioos:station:USF.COMPS:C13:1,2019-05-13T20:35:00,26.0630,-83.0730,1.3,5.5,254.38,6.77,'11111222,11111222,11111222' 
COMPS,ioos:station:USF.COMPS:C13:1,2019-05-13T21:35:00,26.0630,-83.0730,1.3,8.9,268.05,16.67,'11111222,11111222,11111222' 
COMPS,ioos:station:USF.COMPS:C13:1,2019-05-13T22:35:00,26.0630,-83.0730,1.3,6.48,314.99,8.09,'11111222,11111222,11111222' 
COMPS,ioos:station:USF.COMPS:C13:1,2019-05-13T23:35:00,26.0630,-83.0730,1.3,6.66,301.88,7.9,'11111222,11111222,11111222' 
COMPS,ioos:station:USF.COMPS:C13:1,2019-05-14T00:35:00,26.0630,-83.0730,1.3,2.69,222.56,3.7,'11111222,11111222,11111222' 
COMPS,ioos:station:USF.COMPS:C13:1,2019-05-14T01:35:00,26.0630,-83.0730,1.3,5.97,195.64,8.7,'11111222,11111222,11111222' 
COMPS,ioos:station:USF.COMPS:C13:1,2019-05-14T02:35:00,26.0630,-83.0730,1.3,5.25,209.67,6.34,'11111222,11111222,11111222' 
COMPS,ioos:station:USF.COMPS:C13:1,2019-05-14T03:35:00,26.0630,-83.0730,1.3,4.26,217.39,5.18,'11111222,11111222,11111222' 
COMPS,ioos:station:USF.COMPS:C13:1,2019-05-14T04:35:00,26.0630,-83.0730,1.3,4.8,212.75,5.82,'11111222,11111222,11111222' 
COMPS,ioos:station:USF.COMPS:C13:1,2019-05-14T05:35:00,26.0630,-83.0730,1.3,3.97,203.18,5.04,'11111222,11111222,11111222' 
COMPS,ioos:station:USF.COMPS:C13:1,2019-05-14T06:35:00,26.0630,-83.0730,1.3,4.04,198.99,4.99,'11111222,11111222,11111222' 
COMPS,ioos:station:USF.COMPS:C13:1,2019-05-14T07:35:00,26.0630,-83.0730,1.3,4.23,226.26,5.01,'11111222,11111222,11111222' 
COMPS,ioos:station:USF.COMPS:C13:1,2019-05-14T08:35:00,26.0630,-83.0730,1.3,3.82,238.71,4.96,'11111222,11111222,11111222' 
COMPS,ioos:station:USF.COMPS:C13:1,2019-05-14T09:35:00,26.0630,-83.0730,1.3,3.24,273.64,4.21,'11111222,11111222,11111222' 
COMPS,ioos:station:USF.COMPS:C13:1,2019-05-14T10:35:00,26.0630,-83.0730,1.3,2.5,237.79,3.2,'11111222,11111222,11111222' 
COMPS,ioos:station:USF.COMPS:C13:1,2019-05-14T11:35:00,26.0630,-83.0730,1.3,2.01,215.67,2.57,'11111222,11111222,11111222' 
COMPS,ioos:station:USF.COMPS:C13:1,2019-05-14T12:35:00,26.0630,-83.0730,1.3,1.63,295.05,2.5,'11111222,11111222,11111222' 
COMPS,ioos:station:USF.COMPS:C13:1,2019-05-14T13:35:00,26.0630,-83.0730,1.3,1.76,243.5,2.43,'11111222,11111222,11111222' 
COMPS,ioos:station:USF.COMPS:C13:1,2019-05-14T14:35:00,26.0630,-83.0730,1.3,3.76,243.86,4.79,'11111222,11111222,11111222' 
COMPS,ioos:station:USF.COMPS:C13:1,2019-05-14T15:35:00,26.0630,-83.0730,1.3,4.04,261.69,4.84,'11111222,11111222,11111222' 
COMPS,ioos:station:USF.COMPS:C13:1,2019-05-14T16:35:00,26.0630,-83.0730,1.3,4.08,294.53,5.13,'11111222,11111222,11111222' 
COMPS,ioos:station:USF.COMPS:C13:1,2019-05-14T17:35:00,26.0630,-83.0730,1.3,5.1,314.35,6.32,'11111222,11111222,11111222' 
COMPS,ioos:station:USF.COMPS:C13:1,2019-05-14T18:35:00,26.0630,-83.0730,1.3,4.79,294.03,5.76,'11111222,11111222,11111222' 
COMPS,ioos:station:USF.COMPS:C13:1,2019-05-14T19:35:00,26.0630,-83.0730,1.3,4.26,230.58,5.44,'11111222,11111222,11111222' 
COMPS,ioos:station:USF.COMPS:C13:1,2019-05-14T20:35:00,26.0630,-83.0730,1.3,4.48,251.55,5.58,'11111222,11111222,11111222' 
COMPS,ioos:station:USF.COMPS:C13:1,2019-05-14T21:35:00,26.0630,-83.0730,1.3,7.05,244.3,8.7,'11111222,11111222,11111222' 
COMPS,ioos:station:USF.COMPS:C13:1,2019-05-14T22:35:00,26.0630,-83.0730,1.3,7.73,276.77,9.3,'11111222,11111222,11111222' 
COMPS,ioos:station:USF.COMPS:C13:1,2019-05-14T23:35:00,26.0630,-83.0730,1.3,5.57,260.56,7.0,'11111222,11111222,11111222' 
COMPS,ioos:station:USF.COMPS:C13:1,2019-05-15T00:35:00,26.0630,-83.0730,1.3,8.83,349.81,11.07,'11111222,11111222,11111222' 
COMPS,ioos:station:USF.COMPS:C13:1,2019-05-15T01:35:00,26.0630,-83.0730,1.3,7.24,340.85,8.78,'11111222,11111222,11111222' 
COMPS,ioos:station:USF.COMPS:C13:1,2019-05-15T02:35:00,26.0630,-83.0730,1.3,5.0,329.37,6.13,'11111222,11111222,11111222' 
COMPS,ioos:station:USF.COMPS:C13:1,2019-05-15T03:35:00,26.0630,-83.0730,1.3,2.97,25.98,3.54,'11111222,11111222,11111222' 
COMPS,ioos:station:USF.COMPS:C13:1,2019-05-15T04:35:00,26.0630,-83.0730,1.3,4.48,87.45,5.55,'11111222,11111222,11111222' 
COMPS,ioos:station:USF.COMPS:C13:1,2019-05-15T05:35:00,26.0630,-83.0730,1.3,3.07,348.11,3.72,'11111222,11111222,11111222' 
COMPS,ioos:station:USF.COMPS:C13:1,2019-05-15T06:35:00,26.0630,-83.0730,1.3,4.74,354.63,6.57,'11111222,11111222,11111222' 
COMPS,ioos:station:USF.COMPS:C13:1,2019-05-15T07:35:00,26.0630,-83.0730,1.3,1.79,18.77,3.3,'11111222,11111222,11111222' 
COMPS,ioos:station:USF.COMPS:C13:1,2019-05-15T08:35:00,26.0630,-83.0730,1.3,2.62,20.74,3.53,'11111222,11111222,11111222' 
COMPS,ioos:station:USF.COMPS:C13:1,2019-05-15T09:35:00,26.0630,-83.0730,1.3,1.49,23.62,2.37,'11111222,11111222,11111222' 
COMPS,ioos:station:USF.COMPS:C13:1,2019-05-15T10:35:00,26.0630,-83.0730,1.3,3.22,30.67,4.03,'11111222,11111222,11111222' 
COMPS,ioos:station:USF.COMPS:C13:1,2019-05-15T11:35:00,26.0630,-83.0730,1.3,1.54,93.72,2.15,'11111222,11111222,11111222' 
COMPS,ioos:station:USF.COMPS:C13:1,2019-05-15T12:35:00,26.0630,-83.0730,1.3,2.02,78.09,3.62,'11111222,11111222,11111222' 
COMPS,ioos:station:USF.COMPS:C13:1,2019-05-15T13:35:00,26.0630,-83.0730,1.3,2.45,26.81,3.29,'11111222,11111222,11111222' 
COMPS,ioos:station:USF.COMPS:C13:1,2019-05-15T14:35:00,26.0630,-83.0730,1.3,2.98,29.89,3.83,'11111222,11111222,11111222' 
COMPS,ioos:station:USF.COMPS:C13:1,2019-05-15T15:35:00,26.0630,-83.0730,1.3,2.09,75.6,2.72,'11111222,11111222,11111222' 
COMPS,ioos:station:USF.COMPS:C13:1,2019-05-15T16:35:00,26.0630,-83.0730,1.3,1.04,101.69,1.72,'11111222,11111222,11111222' 
COMPS,ioos:station:USF.COMPS:C13:1,2019-05-15T17:35:00,26.0630,-83.0730,1.3,1.42,106.86,2.1,'11111222,11111222,11111222' 
COMPS,ioos:station:USF.COMPS:C13:1,2019-05-15T18:35:00,26.0630,-83.0730,1.3,0.72,52.26,1.67,'11111222,11111222,11111222' 
COMPS,ioos:station:USF.COMPS:C13:1,2019-05-15T19:35:00,26.0630,-83.0730,1.3,0.66,83.14,1.48,'11111222,11111222,11111222' 
COMPS,ioos:station:USF.COMPS:C13:1,2019-05-15T20:35:00,26.0630,-83.0730,1.3,0.87,278.9,1.62,'11111222,11111222,11111222' 
COMPS,ioos:station:USF.COMPS:C13:1,2019-05-15T21:35:00,26.0630,-83.0730,1.3,0.88,327.2,1.79,'11111222,11111222,11111222' 
COMPS,ioos:station:USF.COMPS:C13:1,2019-05-15T22:35:00,26.0630,-83.0730,1.3,1.62,321.98,2.42,'11111222,11111222,11111222' 
COMPS,ioos:station:USF.COMPS:C13:1,2019-05-15T23:35:00,26.0630,-83.0730,1.3,2.94,308.53,4.79,'11111222,11111222,11111222' 
COMPS,ioos:station:USF.COMPS:C13:1,2019-05-16T00:35:00,26.0630,-83.0730,1.3,3.42,346.19,4.56,'11111222,11111222,11111222' 
COMPS,ioos:station:USF.COMPS:C13:1,2019-05-16T01:35:00,26.0630,-83.0730,1.3,4.52,4.84,5.71,'11111222,11111222,11111222' 
COMPS,ioos:station:USF.COMPS:C13:1,2019-05-16T02:35:00,26.0630,-83.0730,1.3,4.14,351.83,5.28,'11111222,11111222,11111222' 
COMPS,ioos:station:USF.COMPS:C13:1,2019-05-16T03:35:00,26.0630,-83.0730,1.3,3.68,358.28,4.64,'11111222,11111222,11111222' 
COMPS,ioos:station:USF.COMPS:C13:1,2019-05-16T04:35:00,26.0630,-83.0730,1.3,3.78,3.48,4.81,'11111222,11111222,11111222' 
COMPS,ioos:station:USF.COMPS:C13:1,2019-05-16T05:35:00,26.0630,-83.0730,1.3,3.63,14.07,4.5,'11111222,11111222,11111222' 
COMPS,ioos:station:USF.COMPS:C13:1,2019-05-16T06:35:00,26.0630,-83.0730,1.3,3.65,18.48,4.84,'11111222,11111222,11111222' 
COMPS,ioos:station:USF.COMPS:C13:1,2019-05-16T07:35:00,26.0630,-83.0730,1.3,4.59,15.72,5.64,'11111222,11111222,11111222' 
COMPS,ioos:station:USF.COMPS:C13:1,2019-05-16T08:35:00,26.0630,-83.0730,1.3,3.95,28.43,5.16,'11111222,11111222,11111222' 
COMPS,ioos:station:USF.COMPS:C13:1,2019-05-16T09:35:00,26.0630,-83.0730,1.3,1.66,4.4,2.4,'11111222,11111222,11111222' 
COMPS,ioos:station:USF.COMPS:C13:1,2019-05-16T10:35:00,26.0630,-83.0730,1.3,3.18,0.64,4.07,'11111222,11111222,11111222' 
COMPS,ioos:station:USF.COMPS:C13:1,2019-05-16T11:35:00,26.0630,-83.0730,1.3,4.89,358.12,5.95,'11111222,11111222,11111222' 
COMPS,ioos:station:USF.COMPS:C13:1,2019-05-16T12:35:00,26.0630,-83.0730,1.3,5.72,6.5,6.77,'11111222,11111222,11111222' 
COMPS,ioos:station:USF.COMPS:C13:1,2019-05-16T13:35:00,26.0630,-83.0730,1.3,4.16,24.24,5.22,'11111222,11111222,11111222' 
COMPS,ioos:station:USF.COMPS:C13:1,2019-05-16T14:35:00,26.0630,-83.0730,1.3,4.1,48.59,5.16,'11111222,11111222,11111222' 
COMPS,ioos:station:USF.COMPS:C13:1,2019-05-16T15:35:00,26.0630,-83.0730,1.3,3.42,74.02,4.38,'11111222,11111222,11111222' 
COMPS,ioos:station:USF.COMPS:C13:1,2019-05-16T16:35:00,26.0630,-83.0730,1.3,5.97,91.46,7.08,'11111222,11111222,11111222' 
COMPS,ioos:station:USF.COMPS:C13:1,2019-05-16T17:35:00,26.0630,-83.0730,1.3,4.77,93.52,5.7,'11111222,11111222,11111222' 
COMPS,ioos:station:USF.COMPS:C13:1,2019-05-16T18:35:00,26.0630,-83.0730,1.3,3.77,95.29,5.23,'11111222,11111222,11111222' 
COMPS,ioos:station:USF.COMPS:C13:1,2019-05-16T19:35:00,26.0630,-83.0730,1.3,2.5,103.8,3.09,'11111222,11111222,11111222' 
COMPS,ioos:station:USF.COMPS:C13:1,2019-05-16T20:35:00,26.0630,-83.0730,1.3,0.66,102.12,1.58,'11111222,11111222,11111222' 
COMPS,ioos:station:USF.COMPS:C13:1,2019-05-16T21:35:00,26.0630,-83.0730,1.3,1.16,114.39,1.79,'11111222,11111222,11111222' 
COMPS,ioos:station:USF.COMPS:C13:1,2019-05-16T22:35:00,26.0630,-83.0730,1.3,2.91,84.88,3.73,'11111222,11111222,11111222' 
COMPS,ioos:station:USF.COMPS:C13:1,2019-05-16T23:35:00,26.0630,-83.0730,1.3,2.37,106.68,3.6,'11111222,11111222,11111222' 
COMPS,ioos:station:USF.COMPS:C13:1,2019-05-17T00:35:00,26.0630,-83.0730,1.3,7.04,116.88,8.87,'11111222,11111222,11111222' 
COMPS,ioos:station:USF.COMPS:C13:1,2019-05-17T01:35:00,26.0630,-83.0730,1.3,6.97,115.22,8.18,'11111222,11111222,11111222' 
COMPS,ioos:station:USF.COMPS:C13:1,2019-05-17T02:35:00,26.0630,-83.0730,1.3,6.61,122.95,7.97,'11111222,11111222,11111222' 
COMPS,ioos:station:USF.COMPS:C13:1,2019-05-17T03:35:00,26.0630,-83.0730,1.3,6.35,124.23,7.44,'11111222,11111222,11111222' 
COMPS,ioos:station:USF.COMPS:C13:1,2019-05-17T04:35:00,26.0630,-83.0730,1.3,6.97,108.01,8.78,'11111222,11111222,11111222' 
COMPS,ioos:station:USF.COMPS:C13:1,2019-05-17T05:35:00,26.0630,-83.0730,1.3,7.52,106.86,9.18,'11111222,11111222,11111222' 
COMPS,ioos:station:USF.COMPS:C13:1,2019-05-17T06:35:00,26.0630,-83.0730,1.3,7.21,98.79,9.07,'11111222,11111222,11111222' 
COMPS,ioos:station:USF.COMPS:C13:1,2019-05-17T07:35:00,26.0630,-83.0730,1.3,7.11,100.66,9.24,'11111222,11111222,11111222' 
COMPS,ioos:station:USF.COMPS:C13:1,2019-05-17T08:35:00,26.0630,-83.0730,1.3,7.03,101.68,8.38,'11111222,11111222,11111222' 
COMPS,ioos:station:USF.COMPS:C13:1,2019-05-17T09:35:00,26.0630,-83.0730,1.3,6.95,99.96,8.37,'11111222,11111222,11111222' 
COMPS,ioos:station:USF.COMPS:C13:1,2019-05-17T10:35:00,26.0630,-83.0730,1.3,6.32,101.54,7.78,'11111222,11111222,11111222' 
COMPS,ioos:station:USF.COMPS:C13:1,2019-05-17T11:35:00,26.0630,-83.0730,1.3,6.12,102.98,7.45,'11111222,11111222,11111222' 
COMPS,ioos:station:USF.COMPS:C13:1,2019-05-17T12:35:00,26.0630,-83.0730,1.3,6.13,97.29,7.38,'11111222,11111222,11111222' 
COMPS,ioos:station:USF.COMPS:C13:1,2019-05-17T13:35:00,26.0630,-83.0730,1.3,6.07,89.87,7.45,'11111222,11111222,11111222' 
COMPS,ioos:station:USF.COMPS:C13:1,2019-05-17T14:35:00,26.0630,-83.0730,1.3,6.82,97.49,8.32,'11111222,11111222,11111222' 
COMPS,ioos:station:USF.COMPS:C13:1,2019-05-17T15:35:00,26.0630,-83.0730,1.3,6.42,83.58,7.76,'11111222,11111222,11111222' 
COMPS,ioos:station:USF.COMPS:C13:1,2019-05-17T16:35:00,26.0630,-83.0730,1.3,6.17,86.93,7.23,'11111222,11111222,11111222' 
COMPS,ioos:station:USF.COMPS:C13:1,2019-05-17T17:35:00,26.0630,-83.0730,1.3,5.46,85.74,7.13,'11111222,11111222,11111222' 
COMPS,ioos:station:USF.COMPS:C13:1,2019-05-17T18:35:00,26.0630,-83.0730,1.3,5.62,83.02,6.79,'11111222,11111222,11111222' 
COMPS,ioos:station:USF.COMPS:C13:1,2019-05-17T19:35:00,26.0630,-83.0730,1.3,5.06,79.93,6.11,'11111222,11111222,11111222' 
COMPS,ioos:station:USF.COMPS:C13:1,2019-05-17T20:35:00,26.0630,-83.0730,1.3,4.21,79.71,4.96,'11111222,11111222,11111222' 
COMPS,ioos:station:USF.COMPS:C13:1,2019-05-17T21:35:00,26.0630,-83.0730,1.3,3.64,63.97,4.42,'11111222,11111222,11111222' 
COMPS,ioos:station:USF.COMPS:C13:1,2019-05-17T22:35:00,26.0630,-83.0730,1.3,2.64,57.36,3.31,'11111222,11111222,11111222' 
COMPS,ioos:station:USF.COMPS:C13:1,2019-05-17T23:35:00,26.0630,-83.0730,1.3,2.21,49.79,2.81,'11111222,11111222,11111222' 
COMPS,ioos:station:USF.COMPS:C13:1,2019-05-18T00:35:00,26.0630,-83.0730,1.3,1.91,79.24,2.45,'11111222,11111222,11111222' 
COMPS,ioos:station:USF.COMPS:C13:1,2019-05-18T01:35:00,26.0630,-83.0730,1.3,2.97,49.66,3.94,'11111222,11111222,11111222' 
COMPS,ioos:station:USF.COMPS:C13:1,2019-05-18T02:35:00,26.0630,-83.0730,1.3,4.5,24.6,5.39,'11111222,11111222,11111222' 
COMPS,ioos:station:USF.COMPS:C13:1,2019-05-18T03:35:00,26.0630,-83.0730,1.3,6.06,34.38,7.89,'11111222,11111222,11111222' 
COMPS,ioos:station:USF.COMPS:C13:1,2019-05-18T04:35:00,26.0630,-83.0730,1.3,5.1,54.58,6.78,'11111222,11111222,11111222' 
COMPS,ioos:station:USF.COMPS:C13:1,2019-05-18T05:35:00,26.0630,-83.0730,1.3,6.48,146.93,7.98,'11111222,11111222,11111222' 
COMPS,ioos:station:USF.COMPS:C13:1,2019-05-18T06:35:00,26.0630,-83.0730,1.3,7.53,121.92,9.45,'11111222,11111222,11111222' 
COMPS,ioos:station:USF.COMPS:C13:1,2019-05-18T07:35:00,26.0630,-83.0730,1.3,7.64,115.68,9.29,'11111222,11111222,11111222' 
COMPS,ioos:station:USF.COMPS:C13:1,2019-05-18T08:35:00,26.0630,-83.0730,1.3,6.27,109.1,7.8,'11111222,11111222,11111222' 
COMPS,ioos:station:USF.COMPS:C13:1,2019-05-18T09:35:00,26.0630,-83.0730,1.3,5.77,96.72,7.12,'11111222,11111222,11111222' 
COMPS,ioos:station:USF.COMPS:C13:1,2019-05-18T10:35:00,26.0630,-83.0730,1.3,5.35,93.15,7.01,'11111222,11111222,11111222' 
COMPS,ioos:station:USF.COMPS:C13:1,2019-05-18T11:35:00,26.0630,-83.0730,1.3,5.71,92.24,6.68,'11111222,11111222,11111222' 
COMPS,ioos:station:USF.COMPS:C13:1,2019-05-18T12:35:00,26.0630,-83.0730,1.3,5.81,89.28,7.19,'11111222,11111222,11111222' 
COMPS,ioos:station:USF.COMPS:C13:1,2019-05-18T13:35:00,26.0630,-83.0730,1.3,5.81,80.67,6.98,'11111222,11111222,11111222' 
COMPS,ioos:station:USF.COMPS:C13:1,2019-05-18T14:35:00,26.0630,-83.0730,1.3,5.44,73.83,6.77,'11111222,11111222,11111222' 
COMPS,ioos:station:USF.COMPS:C13:1,2019-05-18T15:35:00,26.0630,-83.0730,1.3,5.32,77.81,6.3,'11111222,11111222,11111222' 
COMPS,ioos:station:USF.COMPS:C13:1,2019-05-18T16:35:00,26.0630,-83.0730,1.3,5.57,67.99,6.79,'11111222,11111222,11111222' 
COMPS,ioos:station:USF.COMPS:C13:1,2019-05-18T17:35:00,26.0630,-83.0730,1.3,5.46,76.32,7.19,'11111222,11111222,11111222' 
COMPS,ioos:station:USF.COMPS:C13:1,2019-05-18T18:35:00,26.0630,-83.0730,1.3,4.66,84.78,5.91,'11111222,11111222,11111222' 
COMPS,ioos:station:USF.COMPS:C13:1,2019-05-18T19:35:00,26.0630,-83.0730,1.3,4.42,90.27,5.56,'11111222,11111222,11111222' 
COMPS,ioos:station:USF.COMPS:C13:1,2019-05-18T20:35:00,26.0630,-83.0730,1.3,3.23,88.1,4.24,'11111222,11111222,11111222' 
COMPS,ioos:station:USF.COMPS:C13:1,2019-05-18T21:35:00,26.0630,-83.0730,1.3,2.59,76.82,3.43,'11111222,11111222,11111222' 
COMPS,ioos:station:USF.COMPS:C13:1,2019-05-18T22:35:00,26.0630,-83.0730,1.3,2.44,103.39,3.34,'11111222,11111222,11111222' 
COMPS,ioos:station:USF.COMPS:C13:1,2019-05-18T23:35:00,26.0630,-83.0730,1.3,2.2,72.38,3.18,'11111222,11111222,11111222' 
COMPS,ioos:station:USF.COMPS:C13:1,2019-05-19T00:35:00,26.0630,-83.0730,1.3,1.77,87.41,2.54,'11111222,11111222,11111222' 
COMPS,ioos:station:USF.COMPS:C13:1,2019-05-19T01:35:00,26.0630,-83.0730,1.3,1.64,136.27,2.19,'11111222,11111222,11111222' 
COMPS,ioos:station:USF.COMPS:C13:1,2019-05-19T02:35:00,26.0630,-83.0730,1.3,2.12,89.97,2.75,'11111222,11111222,11111222' 
COMPS,ioos:station:USF.COMPS:C13:1,2019-05-19T03:35:00,26.0630,-83.0730,1.3,2.91,66.08,3.5,'11111222,11111222,11111222' 
COMPS,ioos:station:USF.COMPS:C13:1,2019-05-19T04:35:00,26.0630,-83.0730,1.3,4.11,82.6,4.88,'11111222,11111222,11111222' 
COMPS,ioos:station:USF.COMPS:C13:1,2019-05-19T05:35:00,26.0630,-83.0730,1.3,4.01,91.29,5.5,'11111222,11111222,11111222' 
COMPS,ioos:station:USF.COMPS:C13:1,2019-05-19T06:35:00,26.0630,-83.0730,1.3,4.74,93.85,5.63,'11111222,11111222,11111222' 
COMPS,ioos:station:USF.COMPS:C13:1,2019-05-19T07:35:00,26.0630,-83.0730,1.3,6.26,92.33,7.33,'11111222,11111222,11111222' 
COMPS,ioos:station:USF.COMPS:C13:1,2019-05-19T08:35:00,26.0630,-83.0730,1.3,5.96,95.2,7.4,'11111222,11111222,11111222' 
COMPS,ioos:station:USF.COMPS:C13:1,2019-05-19T09:35:00,26.0630,-83.0730,1.3,5.4,104.15,6.46,'11111222,11111222,11111222' 
COMPS,ioos:station:USF.COMPS:C13:1,2019-05-19T10:35:00,26.0630,-83.0730,1.3,6.19,106.26,7.55,'11111222,11111222,11111222' 
COMPS,ioos:station:USF.COMPS:C13:1,2019-05-19T11:35:00,26.0630,-83.0730,1.3,6.41,95.1,7.54,'11111222,11111222,11111222' 
COMPS,ioos:station:USF.COMPS:C13:1,2019-05-19T12:35:00,26.0630,-83.0730,1.3,6.22,92.67,7.41,'11111222,11111222,11111222' 
COMPS,ioos:station:USF.COMPS:C13:1,2019-05-19T13:35:00,26.0630,-83.0730,1.3,6.23,99.03,7.42,'11111222,11111222,11111222' 
COMPS,ioos:station:USF.COMPS:C13:1,2019-05-19T14:35:00,26.0630,-83.0730,1.3,5.25,98.53,6.4,'11111222,11111222,11111222' 
COMPS,ioos:station:USF.COMPS:C13:1,2019-05-19T15:35:00,26.0630,-83.0730,1.3,5.42,92.78,6.82,'11111222,11111222,11111222' 
COMPS,ioos:station:USF.COMPS:C13:1,2019-05-19T16:35:00,26.0630,-83.0730,1.3,4.9,93.14,6.02,'11111222,11111222,11111222' 
COMPS,ioos:station:USF.COMPS:C13:1,2019-05-19T17:35:00,26.0630,-83.0730,1.3,5.13,88.93,6.03,'11111222,11111222,11111222' 
COMPS,ioos:station:USF.COMPS:C13:1,2019-05-19T18:35:00,26.0630,-83.0730,1.3,5.16,92.9,6.24,'11111222,11111222,11111222' 
COMPS,ioos:station:USF.COMPS:C13:1,2019-05-19T19:35:00,26.0630,-83.0730,1.3,4.64,105.17,5.58,'11111222,11111222,11111222' 
COMPS,ioos:station:USF.COMPS:C13:1,2019-05-19T20:35:00,26.0630,-83.0730,1.3,3.41,109.44,4.18,'11111222,11111222,11111222' 
COMPS,ioos:station:USF.COMPS:C13:1,2019-05-19T21:35:00,26.0630,-83.0730,1.3,3.15,111.46,3.75,'11111222,11111222,11111222' 
COMPS,ioos:station:USF.COMPS:C13:1,2019-05-19T22:35:00,26.0630,-83.0730,1.3,1.43,152.34,2.04,'11111222,11111222,11111222' 
COMPS,ioos:station:USF.COMPS:C13:1,2019-05-19T23:35:00,26.0630,-83.0730,1.3,1.05,236.87,1.43,'11111222,11111222,11111222' 
COMPS,ioos:station:USF.COMPS:C13:1,2019-05-20T00:35:00,26.0630,-83.0730,1.3,2.07,309.89,2.56,'11111222,11111222,11111222' 
COMPS,ioos:station:USF.COMPS:C13:1,2019-05-20T01:35:00,26.0630,-83.0730,1.3,2.34,318.11,2.86,'11111222,11111222,11111222' 
COMPS,ioos:station:USF.COMPS:C13:1,2019-05-20T02:35:00,26.0630,-83.0730,1.3,3.66,318.79,4.24,'11111222,11111222,11111222' 
COMPS,ioos:station:USF.COMPS:C13:1,2019-05-20T03:35:00,26.0630,-83.0730,1.3,2.34,7.41,3.09,'11111222,11111222,11111222' 
COMPS,ioos:station:USF.COMPS:C13:1,2019-05-20T04:35:00,26.0630,-83.0730,1.3,2.93,56.2,3.67,'11111222,11111222,11111222' 
COMPS,ioos:station:USF.COMPS:C13:1,2019-05-20T05:35:00,26.0630,-83.0730,1.3,3.65,63.86,4.59,'11111222,11111222,11111222' 
COMPS,ioos:station:USF.COMPS:C13:1,2019-05-20T06:35:00,26.0630,-83.0730,1.3,4.25,84.32,5.07,'11111222,11111222,11111222' 
COMPS,ioos:station:USF.COMPS:C13:1,2019-05-20T07:35:00,26.0630,-83.0730,1.3,3.72,87.94,5.12,'11111222,11111222,11111222' 
COMPS,ioos:station:USF.COMPS:C13:1,2019-05-20T08:35:00,26.0630,-83.0730,1.3,1.62,67.1,2.23,'11111222,11111222,11111222' 
COMPS,ioos:station:USF.COMPS:C13:1,2019-05-20T09:35:00,26.0630,-83.0730,1.3,1.52,63.57,1.98,'11111222,11111222,11111222' 
COMPS,ioos:station:USF.COMPS:C13:1,2019-05-20T10:35:00,26.0630,-83.0730,1.3,1.77,15.75,2.35,'11111222,11111222,11111222' 
COMPS,ioos:station:USF.COMPS:C13:1,2019-05-20T11:35:00,26.0630,-83.0730,1.3,2.07,16.29,2.62,'11111222,11111222,11111222' 
COMPS,ioos:station:USF.COMPS:C13:1,2019-05-20T12:35:00,26.0630,-83.0730,1.3,2.89,21.94,3.54,'11111222,11111222,11111222' 
COMPS,ioos:station:USF.COMPS:C13:1,2019-05-20T13:35:00,26.0630,-83.0730,1.3,2.93,38.1,3.81,'11111222,11111222,11111222' 
COMPS,ioos:station:USF.COMPS:C13:1,2019-05-20T14:35:00,26.0630,-83.0730,1.3,2.3,49.5,3.26,'11111222,11111222,11111222' 
COMPS,ioos:station:USF.COMPS:C13:1,2019-05-20T15:35:00,26.0630,-83.0730,1.3,1.9,80.97,2.85,'11111222,11111222,11111222' 
COMPS,ioos:station:USF.COMPS:C13:1,2019-05-20T16:35:00,26.0630,-83.0730,1.3,2.32,79.49,3.15,'11111222,11111222,11111222' 
COMPS,ioos:station:USF.COMPS:C13:1,2019-05-20T17:35:00,26.0630,-83.0730,1.3,1.99,70.26,2.74,'11111222,11111222,11111222' 
COMPS,ioos:station:USF.COMPS:C13:1,2019-05-20T18:35:00,26.0630,-83.0730,1.3,1.82,61.72,2.6,'11111222,11111222,11111222' 